Hourly Data Report for July 03, 2021

SARNIA
ONTARIO
Current Station Operator: NAVCAN

42°59'58.000" N
82°18'32.000" W
181.40 m
6127510
71704
YZR

Download Data

Hourly Data (July 2021)
Hourly Data Report for July 3, 2021
TIME
LST
Temp Definition
°C
Dew Point Definition
°C
Rel Hum Definition
%
Precip. Amount Definition
mm

Wind Dir Definition
10's deg

Wind Spd Definition
km/h
Visibility Definition
km
Stn Press Definition
kPa
Hmdx Definition


Wind Chill Definition


Weather Definition


00:00 16.3 13.3 82 0.0 35 26 16.1 99.34     LegendNANA
01:00 15.0 12.5 85 0.0 34 24 16.1 99.32     LegendNANA
02:00 15.1 12.5 84 0.0 34 26 16.1 99.27     LegendNANA
03:00 14.9 12.4 85 0.0 33 11 16.1 99.27     LegendNANA
04:00 14.5 12.4 87 0.0 29 8 16.1 99.27     LegendNANA
05:00 15.1 12.5 84 0.0 30 5 16.1 99.26     LegendNANA
06:00 15.4 11.8 79 0.0 28 9 16.1 99.30     LegendNANA
07:00 15.7 11.7 77 0.0 27 9 16.1 99.31     LegendNANA
08:00 18.7 12.3 66 0.0 27 11 16.1 99.29     LegendNANA
09:00 20.4 12.8 61 0.0 29 13 16.1 99.27     LegendNANA
10:00 21.1 11.6 54 0.0 29 17 16.1 99.20     LegendNANA
11:00 21.7 11.6 52 0.0 27 13 16.1 99.15     LegendNANA
12:00 23.1 11.9 49 0.0 27 11 16.1 99.07 25   LegendNANA
13:00 24.1 12.0 46 0.0 22 9 16.1 98.98 26   LegendNANA
14:00 24.5 13.8 51 0.0 23 13 16.1 98.91 28   LegendNANA
15:00 25.1 13.8 49 0.0 22 15 16.1 98.89 28   LegendNANA
16:00 25.3 14.8 52 0.0 22 9 16.1 98.86 29   LegendNANA
17:00 25.4 15.4 53 0.0 20 17 16.1 98.83 30   LegendNANA
18:00 25.3 16.3 57 0.0 20 17 16.1 98.80 30   LegendNANA
19:00 24.7 17.1 62 0.0 19 11 16.1 98.81 30   LegendNANA
20:00 22.3 16.4 69 0.0 19 9 16.1 98.81 27   LegendNANA
21:00 21.1 16.6 75 0.0 19 8 16.1 98.84 26   LegendNANA
22:00 20.4 16.9 80 0.0 20 9 16.1 98.85 26   LegendNANA
23:00 20.1 16.8 81 0.0 19 8 16.1 98.86 25   LegendNANA

Notes on Data Quality.

Legend

  • E = Estimated
  • M = Missing
  • NA = Not Available*
  • [empty] = Indicates an unobserved value
Date modified: